Location: New Canada
(47.1017°N, 68.5042°W)
Time: 07:27:28
(UTC+00:00)

BlueWalker 3 - Pass Details

Date: 03 December 2022
Orbit: 499 x 517 km, 53.2° (Epoch: 27 January)

Event Time Altitude Azimuth Distance (km) Brightness Sun altitude
Rises 21:48:44 0° 282° (WNW) 2,637 6.6 -10.4°
Reaches altitude 10° 21:51:07 10° 293° (WNW) 1,746 5.4 -10.8°
Maximum altitude 21:54:42 33° 358° (N) 888 3.0 -11.3°
Enters shadow 21:57:10 17° 54° (NE) 1,355 3.5 -11.7°
